Regional Weather Roundup
Issued by NWS

Home | Current Version | Previous Version | Graphics & Text | Print | Product List | Glossary Off
Versions: 1 2 3 4 5 6 7 8 9 10 11 12 13 14 15 16 17 18 19 20 21 22 23 24 25 26 27 28 29 30 31 32 33 34 35 36 37 38 39 40 41 42 43 44 45 46 47 48 49 50

000
ASUS43 KMKX 280721
RWRWI

WISCONSIN REGIONAL WEATHER ROUNDUP
NATIONAL WEATHER SERVICE MILWAUKEE/SULLIVAN WI
100 AM CST FRI NOV 28 2014

NOTE: "FAIR" INDICATES FEW OR NO CLOUDS BELOW 12,000 FEET WITH NO
SIGNIFICANT WEATHER AND/OR OBSTRUCTIONS TO VISIBILITY.

WIZ001-002-006>008-014>016-023>028-280800-
NORTHWEST WISCONSIN

CITY           SKY/WX    TMP DP  RH WIND       PRES   REMARKS
SUPERIOR ARPT  CLOUDY     7  -1  67 CALM      30.27S
ASHLAND        CLOUDY     5   0  79 CALM      30.28F
HAYWARD        CLOUDY     6  -2  69 S7        30.23F WCI  -6
SIREN          LGT SNOW   8   4  83 S3        30.25S
CUMBERLAND     LGT SNOW   9   1  72 S9        30.22F WCI  -5
RICE LAKE      LGT SNOW   8   1  75 S8        30.26F WCI  -5
CHETEK         LGT SNOW   8   1  72 SE7       30.26F WCI  -4
LADYSMITH      CLOUDY     6   0  76 S3        30.27S
EAU CLAIRE     LGT SNOW   8   2  76 SE5       30.28F WCI   0
MENOMONIE      CLOUDY    10   2  68 SE3       30.28F
NEW RICHMOND   LGT SNOW   9   4  82 S8        30.24F WCI  -4
OSCEOLA        LGT SNOW   9   5  82 S7        30.28F WCI  -2
$$

WIZ003>005-009-010-017-018-280800-
NORTH CENTRAL WISCONSIN

CITY           SKY/WX    TMP DP  RH WIND       PRES   REMARKS
MANITOWISH WTR CLOUDY    -6 -10  83 CALM      30.21S
ARBOR VITAE    CLOUDY    -1  -5  83 CALM      30.21S
WOODRUFF       CLOUDY    -1  -5  83 CALM      30.21S
RHINELANDER    CLOUDY    -3  -6  87 CALM      30.23S
EAGLE RIVER    PTCLDY    -6 -11  77 CALM      30.22S
LAND O LAKES   MOCLDY    -9 -14  80 CALM      30.22S
PHILLIPS       CLOUDY     1  -2  84 CALM      30.22F
TOMAHAWK       CLOUDY    -3  -6  84 CALM      30.24F
MEDFORD        CLOUDY     4  -1  83 CALM      30.23F
MERRILL        CLOUDY     0  -3  85 CALM      30.25F
$$

WIZ029-030-035-036-043>047-280800-
CENTRAL WISCONSIN

CITY           SKY/WX    TMP DP  RH WIND       PRES   REMARKS
WAUSAU         CLOUDY     4  -1  80 CALM      30.27F
MOSINEE        PTCLDY     3   1  92 CALM      30.28F
MARSHFIELD     CLOUDY     6   0  76 CALM      30.27F
STEVENS POINT  PTCLDY    -1  -5  86 CALM      30.30F
WAUPACA        MOCLDY     5   1  81 CALM      30.33F
WAUTOMA        CLOUDY     3  -1  83 CALM      30.33F
WISC RAPIDS    CLOUDY     5  -1  76 CALM      30.32F
CAMP DOUGLAS   PTCLDY     9   5  83 CALM      30.33R
$$

WIZ011>013-019>022-031-037>040-048>050-280800-
NORTHEAST WISCONSIN

CITY           SKY/WX    TMP DP  RH WIND       PRES   REMARKS
ANTIGO         MOCLDY    -6 -10  85 CALM      30.24F
SHAWANO        PTCLDY     4   0  83 CALM      30.33S
OCONTO         MOCLDY     0  -3  88 CALM      30.34F
STURGEON BAY   PTCLDY     7   0  72 S3        30.31F
GREEN BAY      MOCLDY     4  -1  80 CALM      30.34F
MANITOWOC      MOCLDY     7   5  91 W5        30.35F WCI  -2
APPLETON       PTCLDY     5   1  85 CALM      30.32F
CLINTONVILLE   PTCLDY     0  -4  85 CALM      30.33F
OSHKOSH        MOCLDY     6   1  80 MISG      30.33F
$$

WIZ032>034-041-042-053>061-280800-
SOUTHWEST WISCONSIN

CITY           SKY/WX    TMP DP  RH WIND       PRES   REMARKS
LA CROSSE      CLOUDY    14   4  64 S7        30.33F WCI   4
SPARTA         CLOUDY    10   4  77 CALM      30.32F
VIROQUA        CLOUDY    11   3  70 CALM      30.28R
BOSCOBEL       CLOUDY    14   4  64 CALM      30.34F
PRAIRIE DU CHI CLOUDY    15   3  60 CALM      30.34S
PLATTEVILLE    PTCLDY    14   6  70 CALM      30.32F
$$

WIZ056-057-062-063-064-067-068-280800-
SOUTH CENTRAL WISCONSIN

CITY           SKY/WX    TMP DP  RH WIND       PRES   REMARKS
REEDSBURG      CLOUDY     9   5  81 CALM      30.32R
BARABOO/DELLS  MOCLDY    10   4  77 CALM      30.32R
LONE ROCK      CLOUDY    16   6  65 E3        30.34F
MINERAL POINT  CLOUDY    14   5  67 SE6       30.29F WCI   5
MADISON        CLOUDY    13   5  70 SE5       30.33S WCI   5
MIDDLETON      CLOUDY    14   7  73 CALM      30.34R
WATERTOWN      MOCLDY    10   7  90 CALM      30.33F
MONROE         MOCLDY    14   9  79 S6        30.32S WCI   5
JANESVILLE     CLOUDY    16  10  79 CALM      30.35R
$$

WIZ051-052-058>065-066-070>072-280800-
SOUTHEAST WISCONSIN

CITY           SKY/WX    TMP DP  RH WIND       PRES   REMARKS
MILWAUKEE      MOCLDY    14   7  73 NW3       30.35F
WAUKESHA       MOCLDY    10   9  92 CALM      30.34F
MILWAUKEE/TIMM MOCLDY    12   9  85 CALM      30.36S
RACINE         MOCLDY    13   8  81 W3        30.37F
BURLINGTON     MOCLDY    10   7  88 CALM      30.34F
KENOSHA        MOCLDY    11   8  88 CALM      30.35F
FOND DU LAC    PTCLDY     5   1  83 SE3       30.33F
SHEBOYGAN      PTCLDY     7   3  84 W3        30.34F
WEST BEND      MOCLDY    10   5  79 CALM      30.32F
JUNEAU         CLOUDY     8   5  87 E3        30.33F
$$

LSZ147-162-280800-
LAKE SUPERIOR

STATION/POSITION TIME  TEMP    WIND        PRES    WAVE
                       AIR SEA DIR/SP/G            HT/PER
                 (UTC) (F)     (DEG/KT/KT) (MB)    (FT/S)
DEVILS ISLAND    0700   13     210/  8/ 12 1026.5F
PORT WING        0600    6     160/  3/  5 1025.4
SAXON HARBOR     0600    3     190/  2/ 16 1026.1F
$$

LMZ867-665-643>646-280800-
LAKE MICHIGAN

STATION/POSITION TIME  TEMP    WIND        PRES    WAVE
                       AIR SEA DIR/SP/G            HT/PER
                 (UTC) (F)     (DEG/KT/KT) (MB)    (FT/S)
CHAMBERS ISLAND  0600   14     310/  6/  8 1027.4R
N MID LAKE BUOY  0650   19 42  250/  8/ 12 1027.4F   1/ 4
NORTHPORT PIER   0613   16     300/  4/ 13 1027.1R
SISTER BAY       0558          360/ 11/ 13   N/A
KEWAUNEE LAKESHO 0700    6     300/  4/  7 1026.6F
SHEBOYGAN LAKESH 0700   11 34  260/  6/  7 1029.2F
PORT WASHINGTON  0600   12     290/  5/  8 1029.1F
MILWAUKEE LAKESH 0700   16     320/  3/  4   N/A
S MID LAKE BUOY  0650   23 42  240/  6/ 10 1028.9F   3/ 7
KENOSHA   LAKESH 0700   15     300/  4/  5 1027.8F
$$

TC  - TEMPERATURE IN CELSIUS
VSB - VISIBILITY IN STATUTE MILES
WCI - WIND CHILL INDEX
HX  - HEAT INDEX



USA.gov is the U.S. government's official web portal to all federal, state and local government web resources and services.